www.pogodaiklimat.ru

Погода и климат >> Архив погоды >> Украина >> Комсомольское


ПОГОДА в Комсомольском

  • Прогноз погоды в Комсомольском
  • Монитор погоды в Комсомольском

АРХИВ ПОГОДЫ в Комсомольском

Время (UTC), дата Ветер
(напр.,м/с)
 
Видим.   Явления Облачность Т
(С)
Тd
(С)
f
(%)
Тe
(С)
Тes
(С)
Комфортность P
(гПа)
Po
(гПа)
Тmin
(С)
Tmax
(С)
R
(мм)
R24
(мм)
S
(см)
21 16.09 штиль 0 10 км 9/9 600 м
[Sc]
+19.5 +8.6 49 +20 +20 1007.5 996.9
00 17.09 З 1 10 км 4/0
[Ac trans Ci fib]
+17.3 +8.6 57 +18 +18 1006.8 996.1
03 17.09 ЮЗ 1 10 км 4/0
[Ac trans]
+14.6 +7.8 64 +15 +15 1006.6 995.8
06 17.09 З 3 10 км 10/0
[Ac und]
+15.6 +5.6 51 +15 +16 1007.4 996.6 +13.7
09 17.09 З 3 10 км {ливн. осадки} 9/3 600 м
[Cb cap Ac As]
+17.3 +4.2 42 +17 +19 1007.5 996.8
12 17.09 З 3 10 км {ливн. осадки} 10/0
[Ac As]
+18.1 +3.3 37 +18 +20 1006.9 996.2
15 17.09 ЮЗ 3 10 км 1/1 600 м
[Sc]
+17.9 +4.5 41 +18 +18 1005.9 995.2
18 17.09 ЮЗ 2 10 км ясно +14.6 +5.8 56 +14 +14 1006.8 996.0 +19.7 0.0
21 17.09 ЮЗ 1 10 км 1/0
[Ci fib]
+11.4 +7.2 75 +11 +11 1007.2 996.3
00 18.09 ЮЗ 1 10 км ясно +9.8 +6.4 79 +9 +9 1006.5 995.5
03 18.09 ЮЗ 2 10 км 10/10 600 м
[Sc]
+10.5 +7.4 81 +9 +9 1004.7 993.7
06 18.09 ЮЗ 2 10 км слаб. ливневой дождь 10/10 600 м
[Cb cap]
+11.9 +8.3 79 +11 +11 1004.4 993.5 +9.1 0.0
09 18.09 ЮЗ 3 10 км {ливн. осадки} 9/9 600 м
[Cb cap]
+12.9 +9.8 81 +12 +12 1003.7 992.8
12 18.09 З 7 10 км {ливн. осадки} 4/3 1000 м
[Cu med, cong Ac lent]
+16.9 +3.0 39 +16 +17 1002.1 991.4
15 18.09 З 6 10 км 3/3 1000 м
[Sc diur, vesp]
+14.4 -3.9 28 +13 +13 1005.0 994.2
18 18.09 З 5 10 км ясно +10.7 +0.8 50 +8 +8 1008.2 997.2 +17.8 2
21 18.09 З 3 10 км ясно +9.2 +2.3 62 +7 +7 1009.8 998.7
00 19.09 З 3 10 км ясно +7.8 +3.6 75 +5 +5 1011.9 1000.8
03 19.09 ЮЗ 2 10 км 9/9 1000 м
[Sc]
+7.8 +4.8 81 +6 +6 1013.6 1002.4
06 19.09 З 4 10 км 4/4 600 м
[Sc]
+10.8 +4.8 66 +9 +10 1016.0 1004.9 +7.4
09 19.09 З 4 10 км 8/8 600 м
[Cb calv]
+14.8 +3.3 46 +14 +15 1017.0 1006.1
12 19.09 З 3 10 км 6/4 600 м
[Cb calv Ac trans]
+15.4 +3.0 43 +15 +17 1016.5 1005.6
15 19.09 З 2 10 км 3/3 600 м
[Cb calv Ac trans]
+13.8 +2.7 47 +14 +14 1016.9 1005.9
18 19.09 штиль 0 10 км ясно +9.7 +4.5 70 +9 +9 1018.1 1007.0 +17.2
21 19.09 ЮЗ 1 10 км 6/0
[Ac und]
+7.5 +4.0 78 +7 +7 1018.1 1006.9
00 20.09 штиль 0 10 км 1/0
[Ac trans]
+6.4 +3.5 82 +6 +6 1018.1 1006.8
03 20.09 З 1 10 км ясно +5.3 +3.4 88 +4 +4 1017.8 1006.5
06 20.09 Ю 1 10 км 3/3 600 м
[Sc]
+9.8 +4.4 69 +10 +12 1017.3 1006.2 +4.4
09 20.09 ЮЗ 2 10 км 9/9 600 м
[Cb cap]
+14.4 +1.2 41 +14 +15 1016.0 1005.1
12 20.09 СЗ 4 10 км слаб. ливневой дождь 9/9 600 м
[Cb cap]
+13.4 +3.1 50 +12 +12 1014.8 1003.8
15 20.09 СЗ 1 10 км {ливн. осадки} 9/9 600 м
[Cb calv]
+13.7 +3.8 51 +14 +14 1014.4 1003.5
18 20.09 ЮЗ 1 10 км {ливн. осадки} 9/9 600 м
[Sc]
+10.3 +3.7 64 +10 +10 1015.3 1004.2 +16.6 0.0
21 20.09 СЗ 2 10 км 3/0
[Ac trans]
+8.2 +2.7 68 +7 +7 1015.5 1004.3
00 21.09 СЗ 2 10 км 10/10 1000 м
[Sc]
+7.6 +2.8 72 +6 +6 1015.6 1004.4
03 21.09 СЗ 2 10 км в посл. час ливневой дождь 10/10 600 м
[Cb cap]
+7.3 +3.8 78 +5 +5 1016.3 1005.1
06 21.09 СЗ 3 10 км {ливн. осадки} 4/4 1000 м
[Sc]
+8.0 +4.1 76 +5 +7 1017.3 1006.1 +6.7 0.0
09 21.09 СЗ 4 10 км 9/9 600 м
[Cb cap]
+11.8 +2.3 52 +10 +11 1017.2 1006.2
12 21.09 СЗ 4 10 км слаб. ливневой дождь 9/9 600 м
[Cb cap]
+12.2 +1.0 46 +11 +11 1017.6 1006.6
18 21.09 штиль 0 10 км 3/3 1000 м
[Sc]
+8.4 +1.9 64 +8 +8 1018.1 1006.9 +13.9 0.0
00 22.09 ЮЗ 3 10 км 10/10 600 м
[Sc]
+8.6 -0.3 54 +6 +6 1014.8 1003.7
06 22.09 З 4 10 км слаб. ливневой дождь 10/10 300 м
[Cb cap]
+10.5 +9.1 91 +8 +8 1010.2 999.2 +6.8 0.4
12 22.09 З 5 10 км {ливн. осадки} 9/9 300 м
[St]
+16.5 +8.9 61 +16 +16 1009.7 998.9
18 22.09 З 3 10 км 8/8 600 м
[Sc]
+13.9 +7.6 66 +13 +13 1010.5 999.6 +17.0 0.1
00 23.09 С 3 10 км слаб. ливневой дождь 10/10 600 м
[Cb cap]
+7.7 +5.7 87 +5 +5 1013.9 1002.7
06 23.09 С 3 10 км {ливн. осадки} 5/5 600 м
[Sc]
+6.7 +4.1 83 +4 +5 1018.0 1006.7 +5.6 0.9
18 23.09 штиль 0 10 км ясно +5.3 -0.3 67 +5 +5 1020.7 1009.4 +13.8

 

Местоположение метеостанции Комсомольское (Донецкая область, Украина): широта 49.60 долгота 36.53 высота над уровнем моря 91 м.

В архиве по умолчанию представлена погода в Комсомольском за последнюю неделю. Архивные данные за месяц целиком и за предыдущие месяцы, начиная с января 2011 года, Вы можете получить, выбрав интересующий диапазон дат из раскрывающегося списка и нажав кнопку "Ввод!".


*Определитесь, кто Вы:
робот инопланетянин человек

Внимание! Время в таблицах - всемирное. Для получения местного времени необходимо прибавить поправку, которая равна 2 ч.

Смотрите также архив погоды в соседних городах и на ближайших метеорологических станциях:

Погода в Харькове (Харьковская область, Украина) (50 км)
Погода в Изюме (Харьковская область, Украина) (73 км)
Погода в Лозовой (Харьковская область, Украина) (79 км)
Погода в Великом Бурлуке (Харьковская область, Украина) (80 км)
Погода в Краснограде (Харьковская область, Украина) (82 км)
Погода в Купянске (Харьковская область, Украина) (84 км)
Погода в Золочеве (Львовская область, Украина) (88 км)
Погода в Коломаке (Харьковская область, Украина) (98 км)
Погода в Боходухове (Харьковская область, Украина) (98 км)
Погода в Александрополе (Днепропетровская область, Украина) (111 км)

Пояснения к столбцам:

Ветер - указаны скорость ветра в м/с - средняя за 10 мин, порывы в срок и между сроками (в фигурных скобках) и направление, откуда дует ветер: С - северный, СВ - северо-восточный, В - восточный, ЮВ - юго-восточный, Ю - южный, ЮЗ - юго-западный, З - западный, СЗ - северо-западный.
Видимость - горизонтальная дальность видимости в метрах или километрах. При видимости от 1 до 10 км при отсутствии осадков обычно наблюдается дымка, при ухудшении видимости до 1 км и менее - туман. В сухую погоду видимость может ухудшаться дымом, пылью или мглою.
Явления - указаны атмосферные явления, наблюдавшиеся в срок или в последний час перед сроком; фигурными скобками обозначены явления, наблюдавшиеся между сроками (за 1-3 часа до срока); квадратными скобками обозначены град или гололедные отложения с указанием их диаметра в мм.
Облачность - указаны через наклонную черту общая и нижняя облачность в баллах и высота нижней границы облаков в метрах; квадратными скобками обозначены формы облаков: Ci - перистые, Cs - перисто-слоистые, Cc - перисто-кучевые, Ac - высококучевые, As - высокослоистые, Sc - слоисто-кучевые, Ns - слоисто-дождевые, Cu - кучевые, Cb - кучево-дождевые. Подробнее классификацию облаков см. в Атласе облаков (PDF).
T - Температура воздуха - температура, измеренная на высоте 2 м над землей.
Td - Температура точки росы - температура, при понижении до которой содержащийся в воздухе водяной пар достигнет насыщения.
f - Относительная влажность воздуха - влажноcть воздуха, измеренная на высоте 2 м над землей.
Te - Эффективная температура - температура, которую ощущает одетый по сезону человек в тени. Характеристика душности погоды. При расчете учитывается влияние влажности воздуха и скорости ветра на теплоощущения человека.
Tes - Эффективная температура на солнце - температура, которую ощущает человек, с поправкой на солнечный нагрев. Характеристика знойности погоды. Зависит от высоты солнца над горизонтом, облачности и скорости ветра. Ночью, в пасмурную погоду, а также при ветре 12 м/с и более поправка равна нулю.
P - Атмосферное давление - приведенное к уровню моря атмосферное давление.
Po - Атмосферное давление - измеренное на уровне метеостанции атмосферное давление.
Tmin - Минимальная температура - минимум температуры воздуха на высоте 2 м над землей.
Tmax - Максимальная температура - максимум температуры воздуха на высоте 2 м над землей.
R - Количество осадков - Количество выпавших осадков за период времени, мм. При наведении курсора мыши на число - период времени, за который выпало указанное количество осадков.
R24 - Количество осадков - Количество выпавших осадков за 24 часа, мм.
S - Снежный покров - Высота снежного покрова, см. При наведении курсора мыши на число - состояние снежного покрова и степень покрытия местности в баллах.